Location: Oakhurst
(33.6448°N, 111.9543°W)
Time: 21:21:27
(UTC+00:00)

Max Valier Satellite - Pass Details

Date: 30 July 2021
Orbit: 486 x 502 km, 97.2° (Epoch: 20 September)

Event Time Altitude Azimuth Distance (km) Brightness Sun altitude
Exits shadow 04:37:39 12° 228° (SW) 1,552 ? -23.0°
Maximum altitude 04:39:39 17° 265° (W) 1,286 ? -23.3°
Drops below altitude 10° 04:42:05 10° 308° (NW) 1,674 ? -23.7°
Sets 04:44:43 0° 329° (NNW) 2,562 ? -24.1°
